Time,TemperatureF,DewpointF,PressureIn,WindDirection,WindDirectionDegrees,WindSpeedMPH,WindSpeedGustMPH,Humidity,HourlyPrecipIn,Conditions,Clouds,dailyrainin,SoftwareType,DateUTC
2013-07-14 00:03:00,69.9,60.9,30.04,SSE,164,1.0,4.0,73,0.00,,,2.48,VWS V14.01,2013-07-14 05:03:00,
2013-07-14 00:08:00,70.0,61.0,30.04,ESE,121,0.0,2.0,73,0.00,,,0.00,VWS V14.01,2013-07-14 05:08:00,
2013-07-14 00:13:00,70.0,61.3,30.04,SE,126,0.0,2.0,74,0.00,,,0.00,VWS V14.01,2013-07-14 05:13:00,
2013-07-14 00:18:00,70.0,61.3,30.04,SE,143,0.0,2.0,74,0.00,,,0.00,VWS V14.01,2013-07-14 05:18:00,
2013-07-14 00:23:00,69.9,61.6,30.04,SE,138,0.0,2.0,75,0.00,,,0.00,VWS V14.01,2013-07-14 05:23:00,
2013-07-14 00:28:00,69.9,61.6,30.04,ESE,122,0.0,2.0,75,0.00,,,0.00,VWS V14.01,2013-07-14 05:28:00,
2013-07-14 00:33:00,69.9,61.6,30.03,SSE,154,1.0,2.0,75,0.00,,,0.00,VWS V14.01,2013-07-14 05:33:00,
2013-07-14 00:39:00,69.9,61.6,30.04,SE,145,0.0,3.0,75,0.00,,,0.00,VWS V14.01,2013-07-14 05:39:00,
2013-07-14 00:44:00,69.9,62.0,30.04,WSW,241,1.0,3.0,76,0.00,,,0.00,VWS V14.01,2013-07-14 05:44:00,
2013-07-14 00:49:00,69.9,62.0,30.04,SSE,151,1.0,3.0,76,0.00,,,0.00,VWS V14.01,2013-07-14 05:49:00,
2013-07-14 00:54:00,70.0,62.1,30.03,SE,135,1.0,3.0,76,0.00,,,0.00,VWS V14.01,2013-07-14 05:54:00,
2013-07-14 00:59:00,70.0,62.1,30.03,SSE,147,0.0,3.0,76,0.00,,,0.00,VWS V14.01,2013-07-14 05:59:00,
2013-07-14 01:04:00,70.0,62.1,30.03,ESE,120,0.0,1.0,76,0.00,,,0.00,VWS V14.01,2013-07-14 06:04:00,
2013-07-14 01:09:00,70.1,62.2,30.03,SSE,148,0.0,3.0,76,0.00,,,0.00,VWS V14.01,2013-07-14 06:09:00,
2013-07-14 01:14:00,70.0,62.5,30.03,ESE,119,0.0,5.0,77,0.00,,,0.00,VWS V14.01,2013-07-14 06:14:00,
2013-07-14 01:19:00,70.0,62.5,30.04,ESE,109,0.0,5.0,77,0.00,,,0.00,VWS V14.01,2013-07-14 06:19:00,
2013-07-14 01:24:00,70.0,62.8,30.04,ESE,112,2.0,5.0,78,0.00,,,0.00,VWS V14.01,2013-07-14 06:24:00,
2013-07-14 01:30:00,70.0,62.8,30.04,East,100,1.0,5.0,78,0.00,,,0.00,VWS V14.01,2013-07-14 06:30:00,
2013-07-14 01:35:00,70.0,62.8,30.04,SE,140,1.0,5.0,78,0.00,,,0.00,VWS V14.01,2013-07-14 06:35:00,
2013-07-14 01:40:00,70.0,62.8,30.04,ESE,116,0.0,1.0,78,0.00,,,0.00,VWS V14.01,2013-07-14 06:40:00,
2013-07-14 01:45:00,70.0,62.8,30.04,SSE,168,0.0,1.0,78,0.00,,,0.00,VWS V14.01,2013-07-14 06:45:00,
2013-07-14 01:50:00,69.9,62.7,30.04,SSE,168,0.0,2.0,78,0.00,,,0.00,VWS V14.01,2013-07-14 06:50:00,
2013-07-14 01:55:00,69.9,62.7,30.04,SE,138,0.0,2.0,78,0.00,,,0.00,VWS V14.01,2013-07-14 06:55:00,
2013-07-14 02:00:00,69.9,63.1,30.04,East,101,1.0,2.0,79,0.00,,,0.00,VWS V14.01,2013-07-14 07:00:00,
2013-07-14 02:05:00,69.9,63.1,30.04,ESE,116,0.0,4.0,79,0.00,,,0.00,VWS V14.01,2013-07-14 07:05:00,
2013-07-14 02:10:00,69.9,63.1,30.04,ESE,122,0.0,4.0,79,0.00,,,0.00,VWS V14.01,2013-07-14 07:10:00,
2013-07-14 02:15:00,69.9,63.1,30.04,SE,126,0.0,4.0,79,0.00,,,0.00,VWS V14.01,2013-07-14 07:15:00,
2013-07-14 02:20:00,69.9,63.5,30.04,SSE,156,0.0,4.0,80,0.00,,,0.00,VWS V14.01,2013-07-14 07:20:00,
2013-07-14 02:26:00,69.9,63.5,30.04,SSE,156,1.0,4.0,80,0.00,,,0.00,VWS V14.01,2013-07-14 07:26:00,
2013-07-14 02:31:00,69.8,63.4,30.04,ESE,120,1.0,4.0,80,0.00,,,0.00,VWS V14.01,2013-07-14 07:31:00,
2013-07-14 02:36:00,69.8,63.4,30.03,ESE,112,2.0,3.0,80,0.00,,,0.00,VWS V14.01,2013-07-14 07:36:00,
2013-07-14 02:41:00,69.8,63.4,30.03,SE,139,3.0,6.0,80,0.00,,,0.00,VWS V14.01,2013-07-14 07:41:00,
2013-07-14 02:46:00,69.8,63.4,30.03,ESE,107,3.0,6.0,80,0.00,,,0.00,VWS V14.01,2013-07-14 07:46:00,
2013-07-14 02:51:00,69.7,63.6,30.03,SE,125,0.0,6.0,81,0.00,,,0.00,VWS V14.01,2013-07-14 07:51:00,
2013-07-14 02:56:00,69.7,63.6,30.03,ESE,108,0.0,6.0,81,0.00,,,0.00,VWS V14.01,2013-07-14 07:56:00,
2013-07-14 03:01:00,69.6,63.5,30.03,West,267,0.0,6.0,81,0.00,,,0.00,VWS V14.01,2013-07-14 08:01:00,
2013-07-14 03:06:00,69.5,63.4,30.03,SE,131,1.0,3.0,81,0.00,,,0.00,VWS V14.01,2013-07-14 08:06:00,
2013-07-14 03:11:00,69.5,63.4,30.03,SSW,192,0.0,3.0,81,0.00,,,0.00,VWS V14.01,2013-07-14 08:11:00,
2013-07-14 03:53:00,69.3,63.6,30.02,SE,129,1.0,5.0,82,0.00,,,0.00,VWS V14.01,2013-07-14 08:53:00,
2013-07-14 03:58:00,69.3,63.9,30.02,ESE,112,2.0,5.0,83,0.00,,,0.00,VWS V14.01,2013-07-14 08:58:00,
2013-07-14 04:03:00,69.3,63.9,30.02,SE,135,4.0,5.0,83,0.00,,,0.00,VWS V14.01,2013-07-14 09:03:00,
2013-07-14 04:08:00,69.3,63.9,30.02,SE,125,1.0,5.0,83,0.00,,,0.00,VWS V14.01,2013-07-14 09:08:00,
2013-07-14 04:13:00,69.4,64.0,30.01,ESE,112,1.0,5.0,83,0.00,,,0.00,VWS V14.01,2013-07-14 09:13:00,
2013-07-14 04:18:00,69.4,64.0,30.01,ESE,122,1.0,5.0,83,0.00,,,0.00,VWS V14.01,2013-07-14 09:18:00,
2013-07-14 04:24:00,69.4,64.0,30.01,SE,128,1.0,5.0,83,0.00,,,0.00,VWS V14.01,2013-07-14 09:24:00,
2013-07-14 04:28:00,69.3,63.9,30.01,ESE,118,2.0,5.0,83,0.00,,,0.00,VWS V14.01,2013-07-14 09:28:00,
2013-07-14 04:34:00,69.3,64.3,30.01,ESE,106,2.0,5.0,84,0.00,,,0.00,VWS V14.01,2013-07-14 09:34:00,
2013-07-14 04:39:00,69.2,64.2,30.01,South,175,3.0,7.0,84,0.00,,,0.00,VWS V14.01,2013-07-14 09:39:00,
2013-07-14 04:44:00,69.2,63.8,30.02,ESE,106,1.0,7.0,83,0.00,,,0.00,VWS V14.01,2013-07-14 09:44:00,
2013-07-14 04:49:00,69.2,64.2,30.02,SE,125,2.0,7.0,84,0.00,,,0.00,VWS V14.01,2013-07-14 09:49:00,
2013-07-14 04:54:00,69.2,64.2,30.02,SE,145,0.0,7.0,84,0.00,,,0.00,VWS V14.01,2013-07-14 09:54:00,
2013-07-14 04:59:00,69.2,64.2,30.02,SE,132,0.0,7.0,84,0.00,,,0.00,VWS V14.01,2013-07-14 09:59:00,
2013-07-14 05:04:00,69.2,64.2,30.02,ESE,123,1.0,1.0,84,0.00,,,0.00,VWS V14.01,2013-07-14 10:04:00,
2013-07-14 05:09:00,69.1,64.1,30.02,SE,125,1.0,2.0,84,0.00,,,0.00,VWS V14.01,2013-07-14 10:09:00,
2013-07-14 05:14:00,69.1,64.1,30.02,ESE,110,0.0,2.0,84,0.00,,,0.00,VWS V14.01,2013-07-14 10:14:00,
2013-07-14 05:20:00,69.1,64.1,30.03,SE,133,3.0,3.0,84,0.00,,,0.00,VWS V14.01,2013-07-14 10:20:00,
2013-07-14 05:25:00,69.0,64.0,30.03,SE,145,0.0,5.0,84,0.00,,,0.00,VWS V14.01,2013-07-14 10:25:00,
2013-07-14 05:30:00,68.9,63.9,30.03,SE,145,0.0,5.0,84,0.00,,,0.00,VWS V14.01,2013-07-14 10:30:00,
2013-07-14 05:35:00,68.9,64.2,30.03,SE,145,0.0,0.0,85,0.00,,,0.00,VWS V14.01,2013-07-14 10:35:00,
2013-07-14 05:40:00,68.8,64.1,30.03,ESE,113,1.0,2.0,85,0.00,,,0.00,VWS V14.01,2013-07-14 10:40:00,
2013-07-14 05:45:00,68.8,64.1,30.03,ESE,112,2.0,3.0,85,0.00,,,0.00,VWS V14.01,2013-07-14 10:45:00,
2013-07-14 05:50:00,68.8,64.1,30.04,SE,139,2.0,3.0,85,0.00,,,0.00,VWS V14.01,2013-07-14 10:50:00,
2013-07-14 05:55:00,68.8,64.1,30.04,ESE,103,0.0,3.0,85,0.00,,,0.00,VWS V14.01,2013-07-14 10:55:00,
2013-07-14 06:00:00,68.8,64.1,30.04,ESE,104,0.0,3.0,85,0.00,,,0.00,VWS V14.01,2013-07-14 11:00:00,
2013-07-14 06:05:00,68.8,64.1,30.04,ESE,123,1.0,2.0,85,0.00,,,0.00,VWS V14.01,2013-07-14 11:05:00,
2013-07-14 06:11:00,68.9,64.2,30.05,SE,138,0.0,2.0,85,0.00,,,0.00,VWS V14.01,2013-07-14 11:11:00,
2013-07-14 06:16:00,69.0,64.3,30.05,SE,133,0.0,4.0,85,0.00,,,0.00,VWS V14.01,2013-07-14 11:16:00,
2013-07-14 06:21:00,69.0,64.0,30.05,SE,133,0.0,4.0,84,0.00,,,0.00,VWS V14.01,2013-07-14 11:21:00,
2013-07-14 06:26:00,69.1,64.1,30.05,ESE,115,0.0,4.0,84,0.00,,,0.00,VWS V14.01,2013-07-14 11:26:00,
2013-07-14 06:31:00,69.1,64.1,30.05,SE,146,1.0,4.0,84,0.00,,,0.00,VWS V14.01,2013-07-14 11:31:00,
2013-07-14 06:36:00,69.3,64.3,30.05,East,92,0.0,1.0,84,0.00,,,0.00,VWS V14.01,2013-07-14 11:36:00,
2013-07-14 06:41:00,69.4,64.4,30.05,SE,135,0.0,1.0,84,0.00,,,0.00,VWS V14.01,2013-07-14 11:41:00,
2013-07-14 06:46:00,69.5,64.1,30.06,WNW,296,0.0,1.0,83,0.00,,,0.00,VWS V14.01,2013-07-14 11:46:00,
2013-07-14 06:51:00,69.6,64.2,30.06,WNW,296,0.0,1.0,83,0.00,,,0.00,VWS V14.01,2013-07-14 11:51:00,
2013-07-14 06:57:00,69.7,64.0,30.06,SW,226,0.0,1.0,82,0.00,,,0.00,VWS V14.01,2013-07-14 11:57:00,
2013-07-14 07:02:00,69.7,64.0,30.06,SW,217,1.0,1.0,82,0.00,,,0.00,VWS V14.01,2013-07-14 12:02:00,
2013-07-14 07:07:00,69.8,63.7,30.06,WNW,293,0.0,2.0,81,0.00,,,0.00,VWS V14.01,2013-07-14 12:07:00,
2013-07-14 07:12:00,70.0,63.5,30.06,West,264,1.0,2.0,80,0.00,,,0.00,VWS V14.01,2013-07-14 12:12:00,
2013-07-14 07:17:00,70.1,63.7,30.06,WSW,251,0.0,2.0,80,0.00,,,0.00,VWS V14.01,2013-07-14 12:17:00,
2013-07-14 07:22:00,70.1,63.7,30.06,SW,227,0.0,3.0,80,0.00,,,0.00,VWS V14.01,2013-07-14 12:22:00,
2013-07-14 07:27:00,70.2,63.8,30.07,SW,218,0.0,3.0,80,0.00,,,0.00,VWS V14.01,2013-07-14 12:27:00,
2013-07-14 07:32:00,70.2,64.1,30.07,SW,227,0.0,3.0,81,0.00,,,0.00,VWS V14.01,2013-07-14 12:32:00,
2013-07-14 07:37:00,70.2,63.8,30.07,SSW,207,1.0,1.0,80,0.00,,,0.00,VWS V14.01,2013-07-14 12:37:00,
2013-07-14 07:42:00,70.2,63.8,30.07,WSW,238,1.0,3.0,80,0.00,,,0.00,VWS V14.01,2013-07-14 12:42:00,
2013-07-14 07:47:00,70.2,63.8,30.07,SSE,162,1.0,3.0,80,0.00,,,0.00,VWS V14.01,2013-07-14 12:47:00,
2013-07-14 07:53:00,70.2,64.1,30.07,East,101,0.0,3.0,81,0.00,,,0.00,VWS V14.01,2013-07-14 12:53:00,
2013-07-14 07:58:00,70.2,64.1,30.07,SE,145,0.0,3.0,81,0.00,,,0.00,VWS V14.01,2013-07-14 12:58:00,
2013-07-14 08:03:00,70.2,63.8,30.07,ESE,118,1.0,3.0,80,0.00,,,0.00,VWS V14.01,2013-07-14 13:03:00,
2013-07-14 08:08:00,70.2,64.1,30.07,East,91,0.0,3.0,81,0.00,,,0.00,VWS V14.01,2013-07-14 13:08:00,
2013-07-14 08:13:00,70.3,63.8,30.06,SSE,159,1.0,5.0,80,0.00,,,0.00,VWS V14.01,2013-07-14 13:13:00,
2013-07-14 08:18:00,70.3,64.2,30.07,SE,139,0.0,5.0,81,0.00,,,0.00,VWS V14.01,2013-07-14 13:18:00,
2013-07-14 08:23:00,70.4,64.3,30.07,ESE,120,0.0,5.0,81,0.00,,,0.00,VWS V14.01,2013-07-14 13:23:00,
2013-07-14 08:28:00,70.5,64.4,30.07,SE,140,0.0,5.0,81,0.00,,,0.00,VWS V14.01,2013-07-14 13:28:00,
2013-07-14 08:33:00,70.5,64.4,30.07,ESE,116,0.0,5.0,81,0.00,,,0.00,VWS V14.01,2013-07-14 13:33:00,
2013-07-14 08:38:00,70.6,64.1,30.08,West,274,0.0,4.0,80,0.00,,,0.00,VWS V14.01,2013-07-14 13:38:00,
2013-07-14 08:43:00,70.6,64.1,30.08,South,174,1.0,4.0,80,0.00,,,0.00,VWS V14.01,2013-07-14 13:43:00,
2013-07-14 08:48:00,70.6,64.5,30.08,ESE,104,1.0,4.0,81,0.00,,,0.00,VWS V14.01,2013-07-14 13:48:00,
2013-07-14 08:53:00,70.6,64.1,30.08,ESE,105,1.0,4.0,80,0.00,,,0.00,VWS V14.01,2013-07-14 13:53:00,
2013-07-14 08:59:00,70.6,64.1,30.08,East,82,0.0,4.0,80,0.00,,,0.00,VWS V14.01,2013-07-14 13:59:00,
2013-07-14 09:04:00,70.7,64.2,30.08,SSE,147,3.0,4.0,80,0.00,,,0.00,VWS V14.01,2013-07-14 14:04:00,
2013-07-14 09:09:00,70.7,64.2,30.08,SSE,149,0.0,4.0,80,0.00,,,0.00,VWS V14.01,2013-07-14 14:09:00,
2013-07-14 09:14:00,70.7,64.6,30.08,SE,136,2.0,4.0,81,0.00,,,0.00,VWS V14.01,2013-07-14 14:14:00,
2013-07-14 09:19:00,70.6,64.5,30.08,ESE,103,0.0,4.0,81,0.00,,,0.00,VWS V14.01,2013-07-14 14:19:00,
2013-07-14 09:24:00,70.4,64.7,30.08,East,100,0.0,4.0,82,0.00,,,0.00,VWS V14.01,2013-07-14 14:24:00,
2013-07-14 09:29:00,70.2,64.4,30.09,ESE,106,2.0,4.0,82,0.00,,,0.00,VWS V14.01,2013-07-14 14:29:00,
2013-07-14 09:34:00,70.1,64.4,30.08,SSE,148,3.0,4.0,82,0.00,,,0.00,VWS V14.01,2013-07-14 14:34:00,
2013-07-14 09:39:00,70.1,64.4,30.09,ESE,115,1.0,5.0,82,0.00,,,0.00,VWS V14.01,2013-07-14 14:39:00,
2013-07-14 09:44:00,70.1,64.4,30.09,NW,310,0.0,5.0,82,0.00,,,0.00,VWS V14.01,2013-07-14 14:44:00,
2013-07-14 09:50:00,70.3,64.6,30.09,South,187,1.0,5.0,82,0.00,,,0.00,VWS V14.01,2013-07-14 14:50:00,
2013-07-14 09:55:00,70.4,64.3,30.09,SE,143,1.0,5.0,81,0.00,,,0.00,VWS V14.01,2013-07-14 14:55:00,
2013-07-14 10:00:00,70.6,64.8,30.09,ESE,116,1.0,5.0,82,0.00,,,0.00,VWS V14.01,2013-07-14 15:00:00,
2013-07-14 10:05:00,70.8,64.7,30.09,ESE,117,0.0,1.0,81,0.00,,,0.00,VWS V14.01,2013-07-14 15:05:00,
2013-07-14 10:10:00,71.0,64.5,30.09,SE,129,1.0,3.0,80,0.00,,,0.00,VWS V14.01,2013-07-14 15:10:00,
2013-07-14 10:15:00,71.3,65.2,30.09,ESE,120,1.0,4.0,81,0.00,,,0.00,VWS V14.01,2013-07-14 15:15:00,
2013-07-14 10:20:00,71.6,64.8,30.09,ESE,114,0.0,4.0,79,0.00,,,0.00,VWS V14.01,2013-07-14 15:20:00,
2013-07-14 10:25:00,72.0,65.5,30.09,WSW,248,1.0,4.0,80,0.00,,,0.00,VWS V14.01,2013-07-14 15:25:00,
2013-07-14 10:31:00,72.3,65.8,30.09,SSE,159,1.0,4.0,80,0.00,,,0.00,VWS V14.01,2013-07-14 15:31:00,
2013-07-14 10:36:00,72.5,65.3,30.09,ESE,117,2.0,4.0,78,0.00,,,0.00,VWS V14.01,2013-07-14 15:36:00,
2013-07-14 10:41:00,73.0,66.1,30.09,ESE,121,4.0,4.0,79,0.00,,,0.00,VWS V14.01,2013-07-14 15:41:00,
2013-07-14 10:46:00,73.3,66.0,30.09,ESE,120,1.0,5.0,78,0.00,,,0.00,VWS V14.01,2013-07-14 15:46:00,
2013-07-14 10:51:00,73.8,66.5,30.09,ESE,106,1.0,5.0,78,0.00,,,0.00,VWS V14.01,2013-07-14 15:51:00,
2013-07-14 10:56:00,74.4,66.3,30.09,East,98,0.0,5.0,76,0.00,,,0.00,VWS V14.01,2013-07-14 15:56:00,
2013-07-14 11:01:00,74.9,66.1,30.09,East,96,0.0,5.0,74,0.00,,,0.00,VWS V14.01,2013-07-14 16:01:00,
2013-07-14 11:06:00,75.3,66.1,30.09,ENE,60,1.0,3.0,73,0.00,,,0.00,VWS V14.01,2013-07-14 16:06:00,
2013-07-14 11:11:00,75.6,66.3,30.10,NE,50,0.0,3.0,73,0.00,,,0.00,VWS V14.01,2013-07-14 16:11:00,
2013-07-14 11:16:00,75.8,66.5,30.10,East,87,2.0,3.0,73,0.00,,,0.00,VWS V14.01,2013-07-14 16:16:00,
2013-07-14 11:21:00,76.0,66.7,30.10,North,4,2.0,3.0,73,0.00,,,0.00,VWS V14.01,2013-07-14 16:21:00,
2013-07-14 11:27:00,76.6,66.5,30.10,NE,43,3.0,8.0,71,0.00,,,0.00,VWS V14.01,2013-07-14 16:27:00,
2013-07-14 11:32:00,77.4,66.0,30.10,ESE,114,1.0,8.0,68,0.00,,,0.00,VWS V14.01,2013-07-14 16:32:00,
2013-07-14 11:37:00,78.1,65.8,30.10,ENE,62,1.0,8.0,66,0.00,,,0.00,VWS V14.01,2013-07-14 16:37:00,
2013-07-14 11:42:00,78.7,68.5,30.10,ESE,122,2.0,8.0,71,0.00,,,0.00,VWS V14.01,2013-07-14 16:42:00,
2013-07-14 11:47:00,79.2,66.4,30.10,NE,48,3.0,8.0,65,0.00,,,0.00,VWS V14.01,2013-07-14 16:47:00,
2013-07-14 11:52:00,79.6,67.2,30.10,ENE,77,1.0,8.0,66,0.00,,,0.00,VWS V14.01,2013-07-14 16:52:00,
2013-07-14 11:57:00,80.1,66.4,30.09,SSE,162,2.0,8.0,63,0.00,,,0.00,VWS V14.01,2013-07-14 16:57:00,
2013-07-14 12:02:00,80.5,68.5,30.09,WNW,287,3.0,8.0,67,0.00,,,0.00,VWS V14.01,2013-07-14 17:02:00,
2013-07-14 12:07:00,80.9,68.5,30.09,WSW,249,0.0,1.0,66,0.00,,,0.00,VWS V14.01,2013-07-14 17:07:00,
2013-07-14 12:12:00,81.3,68.4,30.10,SSE,147,0.0,2.0,65,0.00,,,0.00,VWS V14.01,2013-07-14 17:12:00,
2013-07-14 12:18:00,81.2,67.4,30.10,SSW,212,1.0,5.0,63,0.00,,,0.00,VWS V14.01,2013-07-14 17:18:00,
2013-07-14 12:23:00,81.3,68.4,30.10,WSW,245,1.0,5.0,65,0.00,,,0.00,VWS V14.01,2013-07-14 17:23:00,
2013-07-14 12:28:00,81.6,68.2,30.10,East,89,5.0,7.0,64,0.00,,,0.00,VWS V14.01,2013-07-14 17:28:00,
2013-07-14 12:33:00,82.0,69.1,30.10,SSW,208,3.0,7.0,65,0.00,,,0.00,VWS V14.01,2013-07-14 17:33:00,
2013-07-14 12:38:00,82.3,68.0,30.10,SSE,156,0.0,6.0,62,0.00,,,0.00,VWS V14.01,2013-07-14 17:38:00,
2013-07-14 12:43:00,82.1,67.8,30.10,SE,137,0.0,6.0,62,0.00,,,0.00,VWS V14.01,2013-07-14 17:43:00,
2013-07-14 12:48:00,81.9,68.1,30.10,SSW,195,1.0,6.0,63,0.00,,,0.00,VWS V14.01,2013-07-14 17:48:00,
2013-07-14 12:53:00,81.9,67.1,30.10,East,85,1.0,6.0,61,0.00,,,0.00,VWS V14.01,2013-07-14 17:53:00,
2013-07-14 12:58:00,82.0,66.8,30.10,NNE,21,1.0,6.0,60,0.00,,,0.00,VWS V14.01,2013-07-14 17:58:00,
2013-07-14 13:03:00,82.0,66.8,30.10,East,81,2.0,6.0,60,0.00,,,0.00,VWS V14.01,2013-07-14 18:03:00,
2013-07-14 13:09:00,81.8,66.1,30.10,NW,314,2.0,5.0,59,0.00,,,0.00,VWS V14.01,2013-07-14 18:09:00,
2013-07-14 13:14:00,81.6,65.9,30.09,SW,226,0.0,5.0,59,0.00,,,0.00,VWS V14.01,2013-07-14 18:14:00,
2013-07-14 13:19:00,81.7,67.4,30.09,NNE,20,0.0,5.0,62,0.00,,,0.00,VWS V14.01,2013-07-14 18:19:00,
2013-07-14 13:24:00,82.1,68.7,30.09,SSW,199,3.0,5.0,64,0.00,,,0.00,VWS V14.01,2013-07-14 18:24:00,
2013-07-14 13:29:00,82.4,67.6,30.09,WNW,283,0.0,5.0,61,0.00,,,0.00,VWS V14.01,2013-07-14 18:29:00,
2013-07-14 13:34:00,82.7,66.9,30.09,West,274,1.0,2.0,59,0.00,,,0.00,VWS V14.01,2013-07-14 18:34:00,
2013-07-14 13:39:00,82.8,67.5,30.09,SE,125,1.0,2.0,60,0.00,,,0.00,VWS V14.01,2013-07-14 18:39:00,
2013-07-14 13:44:00,83.0,66.7,30.09,ENE,77,1.0,4.0,58,0.00,,,0.00,VWS V14.01,2013-07-14 18:44:00,
2013-07-14 13:49:00,83.3,68.0,30.09,SSE,158,1.0,4.0,60,0.00,,,0.00,VWS V14.01,2013-07-14 18:49:00,
2013-07-14 13:55:00,83.4,68.1,30.09,SSW,206,1.0,4.0,60,0.00,,,0.00,VWS V14.01,2013-07-14 18:55:00,
2013-07-14 14:00:00,83.4,66.1,30.09,WSW,245,1.0,4.0,56,0.00,,,0.00,VWS V14.01,2013-07-14 19:00:00,
2013-07-14 14:05:00,83.0,65.7,30.09,SSW,196,0.0,2.0,56,0.00,,,0.00,VWS V14.01,2013-07-14 19:05:00,
2013-07-14 14:10:00,82.7,65.4,30.09,ESE,116,2.0,2.0,56,0.00,,,0.00,VWS V14.01,2013-07-14 19:10:00,
2013-07-14 14:15:00,82.6,66.8,30.09,South,187,0.0,5.0,59,0.00,,,0.00,VWS V14.01,2013-07-14 19:15:00,
2013-07-14 14:20:00,82.7,67.9,30.10,SSE,158,0.0,5.0,61,0.00,,,0.00,VWS V14.01,2013-07-14 19:20:00,
2013-07-14 14:25:00,82.7,67.4,30.09,ESE,112,1.0,5.0,60,0.00,,,0.00,VWS V14.01,2013-07-14 19:25:00,
2013-07-14 14:30:00,82.7,66.4,30.09,ESE,123,0.0,5.0,58,0.00,,,0.00,VWS V14.01,2013-07-14 19:30:00,
2013-07-14 14:35:00,82.8,68.9,30.09,ESE,114,0.0,2.0,63,0.00,,,0.00,VWS V14.01,2013-07-14 19:35:00,
2013-07-14 14:40:00,83.0,66.7,30.09,ENE,67,1.0,6.0,58,0.00,,,0.00,VWS V14.01,2013-07-14 19:40:00,
2013-07-14 14:46:00,83.2,66.9,30.09,West,264,4.0,6.0,58,0.00,,,0.00,VWS V14.01,2013-07-14 19:46:00,
2013-07-14 14:51:00,83.1,67.8,30.09,SSE,153,0.0,6.0,60,0.00,,,0.00,VWS V14.01,2013-07-14 19:51:00,
2013-07-14 14:56:00,82.9,65.6,30.09,East,83,1.0,6.0,56,0.00,,,0.00,VWS V14.01,2013-07-14 19:56:00,
2013-07-14 15:01:00,82.8,67.5,30.09,WNW,282,0.0,6.0,60,0.00,,,0.00,VWS V14.01,2013-07-14 20:01:00,
2013-07-14 15:06:00,82.6,67.3,30.09,South,173,0.0,1.0,60,0.00,,,0.00,VWS V14.01,2013-07-14 20:06:00,
2013-07-14 15:11:00,82.4,65.7,30.09,ESE,118,1.0,7.0,57,0.00,,,0.00,VWS V14.01,2013-07-14 20:11:00,
2013-07-14 15:16:00,82.3,68.0,30.09,WSW,256,0.0,7.0,62,0.00,,,0.00,VWS V14.01,2013-07-14 20:16:00,
2013-07-14 15:21:00,82.3,67.5,30.09,ESE,102,4.0,7.0,61,0.00,,,0.00,VWS V14.01,2013-07-14 20:21:00,
2013-07-14 15:26:00,82.2,66.0,30.09,SE,141,0.0,7.0,58,0.00,,,0.00,VWS V14.01,2013-07-14 20:26:00,
2013-07-14 15:31:00,82.0,65.8,30.09,SSE,151,4.0,7.0,58,0.00,,,0.00,VWS V14.01,2013-07-14 20:31:00,
2013-07-14 15:37:00,82.0,66.3,30.09,SSE,157,3.0,5.0,59,0.00,,,0.00,VWS V14.01,2013-07-14 20:37:00,
2013-07-14 15:42:00,82.1,66.4,30.09,East,91,2.0,5.0,59,0.00,,,0.00,VWS V14.01,2013-07-14 20:42:00,
2013-07-14 15:47:00,82.2,67.4,30.09,NNE,15,1.0,6.0,61,0.00,,,0.00,VWS V14.01,2013-07-14 20:47:00,
2013-07-14 15:52:00,82.4,68.1,30.09,NNE,23,0.0,6.0,62,0.00,,,0.00,VWS V14.01,2013-07-14 20:52:00,
2013-07-14 15:57:00,82.5,66.7,30.09,SSE,159,1.0,6.0,59,0.00,,,0.00,VWS V14.01,2013-07-14 20:57:00,
2013-07-14 16:02:00,82.4,66.7,30.09,South,182,0.0,6.0,59,0.00,,,0.00,VWS V14.01,2013-07-14 21:02:00,
2013-07-14 16:07:00,82.5,67.7,30.09,WSW,249,0.0,5.0,61,0.00,,,0.00,VWS V14.01,2013-07-14 21:07:00,
2013-07-14 16:12:00,82.5,67.2,30.09,East,88,2.0,5.0,60,0.00,,,0.00,VWS V14.01,2013-07-14 21:12:00,
2013-07-14 16:17:00,82.5,67.2,30.08,SE,131,2.0,5.0,60,0.00,,,0.00,VWS V14.01,2013-07-14 21:17:00,
2013-07-14 16:22:00,82.4,67.1,30.08,ESE,108,2.0,5.0,60,0.00,,,0.00,VWS V14.01,2013-07-14 21:22:00,
2013-07-14 16:27:00,82.4,67.6,30.08,ESE,120,2.0,5.0,61,0.00,,,0.00,VWS V14.01,2013-07-14 21:27:00,
2013-07-14 16:33:00,82.4,68.1,30.08,ESE,102,2.0,5.0,62,0.00,,,0.00,VWS V14.01,2013-07-14 21:33:00,
2013-07-14 16:38:00,82.3,67.5,30.08,SE,128,2.0,4.0,61,0.00,,,0.00,VWS V14.01,2013-07-14 21:38:00,
2013-07-14 16:43:00,82.1,66.8,30.08,ESE,111,3.0,5.0,60,0.00,,,0.00,VWS V14.01,2013-07-14 21:43:00,
2013-07-14 16:48:00,82.1,67.3,30.08,West,264,0.0,5.0,61,0.00,,,0.00,VWS V14.01,2013-07-14 21:48:00,
2013-07-14 16:53:00,82.1,66.8,30.08,SE,131,1.0,5.0,60,0.00,,,0.00,VWS V14.01,2013-07-14 21:53:00,
2013-07-14 16:58:00,82.0,67.2,30.08,ENE,75,2.0,5.0,61,0.00,,,0.00,VWS V14.01,2013-07-14 21:58:00,
2013-07-14 17:03:00,81.9,66.2,30.08,East,93,1.0,5.0,59,0.00,,,0.00,VWS V14.01,2013-07-14 22:03:00,
2013-07-14 17:08:00,81.6,65.9,30.08,South,191,0.0,3.0,59,0.00,,,0.00,VWS V14.01,2013-07-14 22:08:00,
2013-07-14 17:13:00,81.5,66.8,30.08,West,264,1.0,3.0,61,0.00,,,0.00,VWS V14.01,2013-07-14 22:13:00,
2013-07-14 17:19:00,81.4,66.7,30.08,South,178,0.0,4.0,61,0.00,,,0.00,VWS V14.01,2013-07-14 22:19:00,
2013-07-14 17:24:00,81.4,66.7,30.08,WNW,284,0.0,6.0,61,0.00,,,0.00,VWS V14.01,2013-07-14 22:24:00,
2013-07-14 17:29:00,81.4,67.1,30.08,East,83,1.0,6.0,62,0.00,,,0.00,VWS V14.01,2013-07-14 22:29:00,
2013-07-14 17:34:00,81.4,66.2,30.08,SSE,147,1.0,1.0,60,0.00,,,0.00,VWS V14.01,2013-07-14 22:34:00,
2013-07-14 17:39:00,81.4,66.2,30.08,East,93,1.0,4.0,60,0.00,,,0.00,VWS V14.01,2013-07-14 22:39:00,
2013-07-14 17:44:00,81.4,66.7,30.08,SSW,196,0.0,4.0,61,0.00,,,0.00,VWS V14.01,2013-07-14 22:44:00,
2013-07-14 17:49:00,81.4,66.2,30.08,SE,128,1.0,4.0,60,0.00,,,0.00,VWS V14.01,2013-07-14 22:49:00,
2013-07-14 17:54:00,81.5,66.8,30.08,East,91,0.0,4.0,61,0.00,,,0.00,VWS V14.01,2013-07-14 22:54:00,
2013-07-14 17:59:00,81.5,66.8,30.08,ESE,120,0.0,4.0,61,0.00,,,0.00,VWS V14.01,2013-07-14 22:59:00,
2013-07-14 18:04:00,81.5,66.8,30.08,ESE,103,1.0,1.0,61,0.00,,,0.00,VWS V14.01,2013-07-14 23:04:00,
2013-07-14 18:10:00,81.4,66.2,30.08,ESE,123,0.0,2.0,60,0.00,,,0.00,VWS V14.01,2013-07-14 23:10:00,
2013-07-14 18:15:00,81.4,66.7,30.08,ENE,78,1.0,2.0,61,0.00,,,0.00,VWS V14.01,2013-07-14 23:15:00,
2013-07-14 18:20:00,81.3,67.1,30.08,SW,220,1.0,2.0,62,0.00,,,0.00,VWS V14.01,2013-07-14 23:20:00,
2013-07-14 18:25:00,81.3,66.6,30.08,NE,53,0.0,2.0,61,0.00,,,0.00,VWS V14.01,2013-07-14 23:25:00,
2013-07-14 18:30:00,81.4,66.2,30.08,SE,132,1.0,3.0,60,0.00,,,0.00,VWS V14.01,2013-07-14 23:30:00,
2013-07-14 18:35:00,81.4,66.7,30.08,ESE,119,1.0,1.0,61,0.00,,,0.00,VWS V14.01,2013-07-14 23:35:00,
2013-07-14 18:40:00,81.4,67.1,30.08,ESE,106,0.0,1.0,62,0.00,,,0.00,VWS V14.01,2013-07-14 23:40:00,
2013-07-14 18:45:00,81.4,67.1,30.08,South,182,1.0,1.0,62,0.00,,,0.00,VWS V14.01,2013-07-14 23:45:00,
2013-07-14 18:50:00,81.4,67.1,30.08,ENE,66,0.0,1.0,62,0.00,,,0.00,VWS V14.01,2013-07-14 23:50:00,
2013-07-14 18:56:00,81.4,68.1,30.08,ENE,66,0.0,1.0,64,0.00,,,0.00,VWS V14.01,2013-07-14 23:56:00,
2013-07-14 19:01:00,81.2,68.8,30.08,ENE,67,0.0,1.0,66,0.00,,,0.00,VWS V14.01,2013-07-15 00:01:00,
2013-07-14 19:06:00,81.1,68.7,30.08,ENE,67,0.0,1.0,66,0.00,,,0.00,VWS V14.01,2013-07-15 00:06:00,
2013-07-14 19:11:00,80.9,68.9,30.08,ENE,67,0.0,1.0,67,0.00,,,0.00,VWS V14.01,2013-07-15 00:11:00,
2013-07-14 19:16:00,80.7,67.4,30.09,SSW,200,0.0,3.0,64,0.00,,,0.00,VWS V14.01,2013-07-15 00:16:00,
2013-07-14 19:21:00,80.5,67.2,30.09,SSW,198,0.0,3.0,64,0.00,,,0.00,VWS V14.01,2013-07-15 00:21:00,
2013-07-14 19:26:00,80.4,67.6,30.09,ESE,123,0.0,3.0,65,0.00,,,0.00,VWS V14.01,2013-07-15 00:26:00,
2013-07-14 19:31:00,80.3,67.9,30.09,ESE,123,0.0,3.0,66,0.00,,,0.00,VWS V14.01,2013-07-15 00:31:00,
2013-07-14 19:36:00,80.3,68.3,30.09,ESE,123,0.0,3.0,67,0.00,,,0.00,VWS V14.01,2013-07-15 00:36:00,
2013-07-14 19:41:00,80.0,68.5,30.09,ESE,123,0.0,1.0,68,0.00,,,0.00,VWS V14.01,2013-07-15 00:41:00,
2013-07-14 19:46:00,79.8,68.7,30.09,SE,124,0.0,1.0,69,0.00,,,0.00,VWS V14.01,2013-07-15 00:46:00,
2013-07-14 19:52:00,79.6,68.5,30.09,ESE,123,0.0,1.0,69,0.00,,,0.00,VWS V14.01,2013-07-15 00:52:00,
2013-07-14 19:57:00,79.3,68.3,30.09,ESE,123,0.0,1.0,69,0.00,,,0.00,VWS V14.01,2013-07-15 00:57:00,
2013-07-14 20:02:00,78.9,68.3,30.09,ESE,123,0.0,1.0,70,0.00,,,0.00,VWS V14.01,2013-07-15 01:02:00,
2013-07-14 20:07:00,78.7,68.9,30.09,ESE,122,0.0,0.0,72,0.00,,,0.00,VWS V14.01,2013-07-15 01:07:00,
2013-07-14 20:12:00,78.4,68.6,30.09,ESE,123,0.0,0.0,72,0.00,,,0.00,VWS V14.01,2013-07-15 01:12:00,
2013-07-14 20:17:00,78.2,68.0,30.09,ESE,123,0.0,0.0,71,0.00,,,0.00,VWS V14.01,2013-07-15 01:17:00,
2013-07-14 20:22:00,77.9,68.2,30.09,ESE,123,0.0,0.0,72,0.00,,,0.00,VWS V14.01,2013-07-15 01:22:00,
2013-07-14 20:27:00,77.7,68.4,30.09,ESE,123,0.0,0.0,73,0.00,,,0.00,VWS V14.01,2013-07-15 01:27:00,
2013-07-14 20:32:00,77.5,69.0,30.09,ESE,123,0.0,0.0,75,0.00,,,0.00,VWS V14.01,2013-07-15 01:32:00,
2013-07-14 20:38:00,77.4,68.9,30.09,ESE,123,0.0,0.0,75,0.00,,,0.00,VWS V14.01,2013-07-15 01:38:00,
2013-07-14 20:43:00,77.1,68.6,30.09,ESE,123,0.0,0.0,75,0.00,,,0.00,VWS V14.01,2013-07-15 01:43:00,
2013-07-14 20:48:00,76.9,68.4,30.09,ESE,123,0.0,0.0,75,0.00,,,0.00,VWS V14.01,2013-07-15 01:48:00,
2013-07-14 20:53:00,76.7,68.2,30.09,ESE,123,0.0,0.0,75,0.00,,,0.00,VWS V14.01,2013-07-15 01:53:00,
2013-07-14 20:58:00,76.6,68.5,30.10,ESE,123,0.0,0.0,76,0.00,,,0.00,VWS V14.01,2013-07-15 01:58:00,
2013-07-14 21:03:00,76.3,68.2,30.10,ESE,123,0.0,0.0,76,0.00,,,0.00,VWS V14.01,2013-07-15 02:03:00,
2013-07-14 21:08:00,76.1,68.0,30.10,ESE,123,0.0,0.0,76,0.00,,,0.00,VWS V14.01,2013-07-15 02:08:00,
2013-07-14 21:13:00,75.9,67.8,30.10,ESE,123,0.0,0.0,76,0.00,,,0.00,VWS V14.01,2013-07-15 02:13:00,
2013-07-14 21:18:00,75.7,67.6,30.10,ESE,123,0.0,0.0,76,0.00,,,0.00,VWS V14.01,2013-07-15 02:18:00,
2013-07-14 21:23:00,75.6,67.5,30.10,ESE,123,0.0,0.0,76,0.00,,,0.00,VWS V14.01,2013-07-15 02:23:00,
2013-07-14 21:28:00,75.4,67.7,30.11,ESE,123,0.0,0.0,77,0.00,,,0.00,VWS V14.01,2013-07-15 02:28:00,
2013-07-14 21:33:00,75.2,67.9,30.11,ESE,123,0.0,0.0,78,0.00,,,0.00,VWS V14.01,2013-07-15 02:33:00,
2013-07-14 21:39:00,75.1,67.8,30.11,ESE,123,0.0,0.0,78,0.00,,,0.00,VWS V14.01,2013-07-15 02:39:00,
2013-07-14 21:44:00,74.8,67.9,30.11,ESE,123,0.0,0.0,79,0.00,,,0.00,VWS V14.01,2013-07-15 02:44:00,
2013-07-14 21:49:00,74.7,68.1,30.12,ESE,123,0.0,0.0,80,0.00,,,0.00,VWS V14.01,2013-07-15 02:49:00,
2013-07-14 21:54:00,74.5,67.9,30.12,ESE,123,0.0,0.0,80,0.00,,,0.00,VWS V14.01,2013-07-15 02:54:00,
2013-07-14 21:59:00,74.3,67.7,30.12,ESE,123,0.0,0.0,80,0.00,,,0.00,VWS V14.01,2013-07-15 02:59:00,
2013-07-14 22:04:00,74.1,67.5,30.12,ESE,123,0.0,0.0,80,0.00,,,0.00,VWS V14.01,2013-07-15 03:04:00,
2013-07-14 22:09:00,73.9,67.3,30.12,ESE,123,0.0,0.0,80,0.00,,,0.00,VWS V14.01,2013-07-15 03:09:00,
2013-07-14 22:14:00,73.8,67.2,30.12,ESE,123,0.0,0.0,80,0.00,,,0.00,VWS V14.01,2013-07-15 03:14:00,
2013-07-14 22:19:00,73.7,67.5,30.12,ESE,123,0.0,0.0,81,0.00,,,0.00,VWS V14.01,2013-07-15 03:19:00,
2013-07-14 22:25:00,73.5,67.3,30.12,ESE,123,0.0,0.0,81,0.00,,,0.00,VWS V14.01,2013-07-15 03:25:00,
2013-07-14 22:30:00,73.3,67.1,30.12,ESE,123,0.0,0.0,81,0.00,,,0.00,VWS V14.01,2013-07-15 03:30:00,
2013-07-14 22:35:00,73.2,67.0,30.12,ESE,123,0.0,0.0,81,0.00,,,0.00,VWS V14.01,2013-07-15 03:35:00,
2013-07-14 22:40:00,73.1,67.3,30.12,ESE,123,0.0,0.0,82,0.00,,,0.00,VWS V14.01,2013-07-15 03:40:00,
2013-07-14 22:45:00,73.0,67.5,30.12,ESE,123,0.0,0.0,83,0.00,,,0.00,VWS V14.01,2013-07-15 03:45:00,
2013-07-14 22:50:00,72.8,67.0,30.13,ESE,123,0.0,0.0,82,0.00,,,0.00,VWS V14.01,2013-07-15 03:50:00,
2013-07-14 22:55:00,72.7,67.2,30.13,ESE,123,0.0,0.0,83,0.00,,,0.00,VWS V14.01,2013-07-15 03:55:00,
2013-07-14 23:00:00,72.6,67.5,30.13,ESE,123,0.0,0.0,84,0.00,,,0.00,VWS V14.01,2013-07-15 04:00:00,
2013-07-14 23:01:00,72.5,67.4,30.13,ESE,123,0.0,0.0,84,0.00,,,0.00,VWS V14.01,2013-07-15 04:01:00,
2013-07-14 23:02:00,72.5,67.4,30.13,ESE,123,0.0,0.0,84,0.00,,,0.00,VWS V14.01,2013-07-15 04:02:00,
2013-07-14 23:07:00,72.4,67.3,30.13,ESE,123,0.0,0.0,84,0.00,,,0.00,VWS V14.01,2013-07-15 04:07:00,
2013-07-14 23:12:00,72.2,67.4,30.13,ESE,123,0.0,0.0,85,0.00,,,0.00,VWS V14.01,2013-07-15 04:12:00,
2013-07-14 23:17:00,72.2,67.4,30.13,ESE,123,0.0,0.0,85,0.00,,,0.00,VWS V14.01,2013-07-15 04:17:00,
2013-07-14 23:22:00,72.1,67.3,30.14,ESE,123,1.0,1.0,85,0.00,,,0.00,VWS V14.01,2013-07-15 04:22:00,
2013-07-14 23:27:00,72.1,67.3,30.13,ESE,123,0.0,1.0,85,0.00,,,0.00,VWS V14.01,2013-07-15 04:27:00,
2013-07-14 23:33:00,72.0,67.2,30.14,ESE,123,0.0,1.0,85,0.00,,,0.00,VWS V14.01,2013-07-15 04:33:00,
2013-07-14 23:38:00,71.9,67.2,30.13,ESE,123,0.0,0.0,85,0.00,,,0.00,VWS V14.01,2013-07-15 04:38:00,
2013-07-14 23:43:00,71.8,67.4,30.13,ESE,123,0.0,1.0,86,0.00,,,0.00,VWS V14.01,2013-07-15 04:43:00,
2013-07-14 23:48:00,71.7,67.3,30.13,ESE,123,0.0,1.0,86,0.00,,,0.00,VWS V14.01,2013-07-15 04:48:00,
2013-07-14 23:53:00,71.7,67.3,30.14,ESE,123,0.0,1.0,86,0.00,,,0.00,VWS V14.01,2013-07-15 04:53:00,
2013-07-14 23:58:00,71.6,67.2,30.14,ESE,123,0.0,1.0,86,0.00,,,0.00,VWS V14.01,2013-07-15 04:58:00,